Location: SE Lincoln, NE
(40.7805°N, 96.6275°W)
Time: 04:31:03
(UTC-05:00)

Iridium 4 Rocket - Pass Details

Date: 15 May 2021
Orbit: 583 x 906 km, 86.9° (Epoch: 20 June)

Event Time Altitude Azimuth Distance (km) Brightness Sun altitude
Exits shadow 21:55:19 17° 144° (SE) 2,087 5.1 -13.1°
Maximum altitude 21:59:19 40° 84° (E) 1,308 4.4 -13.7°
Drops below altitude 10° 22:04:47 10° 17° (NNE) 2,593 6.6 -14.5°
Sets 22:07:22 0° 10° (N) 3,527 7.4 -14.8°
